| time (UTC) | temp C | wind direction | speed KPH | gust KPH | rain 1hr cm | rain 24hr cm | rain mn cm | humidity % | barometer mb |
| 20260902101531 | 8 | 241 | 0.0 | 1.6 | 0.00 | 0.00 | 0.00 | 72 | 1010.0 |
| 20260902100021 | 10 | 244 | 0.0 | 1.6 | 0.00 | 0.00 | 0.00 | 69 | 1010.0 |
| 20260902094519 | 10 | 249 | 0.0 | 1.6 | 0.00 | 0.00 | 0.00 | 67 | 1009.7 |
| 20260902093023 | 10 | 242 | 0.0 | 3.2 | 0.00 | 0.00 | 0.00 | 68 | 1009.9 |
| 20260902091514 | 10 | 291 | 0.0 | 1.6 | 0.00 | 0.00 | 0.00 | 70 | 1010.1 |
| 20260902090013 | 9 | 289 | 0.0 | 3.2 | 0.00 | 0.00 | 0.00 | 71 | 1010.4 |
| 20260902084511 | 9 | 276 | 0.0 | 1.6 | 0.00 | 0.00 | 0.00 | 71 | 1010.4 |
| 20260902083008 | 9 | 303 | 0.0 | 3.2 | 0.00 | 0.00 | 0.00 | 70 | 1010.6 |
| 20260902081508 | 9 | 236 | 0.0 | 1.6 | 0.00 | 0.00 | 0.00 | 70 | 1010.5 |
| 20260902080007 | 8 | 236 | 0.0 | 0.0 | 0.00 | 0.00 | 0.00 | 71 | 1010.5 |
| 20260902074505 | 9 | 236 | 1.6 | 3.2 | 0.00 | 0.00 | 0.00 | 69 | 1010.6 |
| 20260902073003 | 9 | 303 | 0.0 | 1.6 | 0.00 | 0.00 | 0.00 | 70 | 1010.4 |
| 20260902071559 | 10 | 303 | 0.0 | 1.6 | 0.00 | 0.00 | 0.00 | 69 | 1010.3 |
| 20260902070100 | 10 | 292 | 0.0 | 1.6 | 0.00 | 0.00 | 0.00 | 69 | 1010.6 |
| 20260902064609 | 10 | 233 | 0.0 | 1.6 | 0.00 | 0.00 | 0.00 | 68 | 1010.6 |
| 20260902063050 | 10 | 230 | 0.0 | 0.0 | 0.00 | 0.00 | 0.00 | 66 | 1010.6 |
| 20260902061555 | 11 | 230 | 0.0 | 0.0 | 0.00 | 0.00 | 0.00 | 65 | 1010.7 |
| 20260902060046 | 11 | 230 | 0.0 | 0.0 | 0.00 | 0.00 | 0.00 | 63 | 1010.8 |
| 20260902054546 | 11 | 229 | 0.0 | 0.0 | 0.00 | 0.00 | 0.00 | 63 | 1010.8 |
| 20260902053048 | 12 | 230 | 0.0 | 0.0 | 0.00 | 0.00 | 0.00 | 63 | 1011.0 |
| 20260902051546 | 10 | 229 | 0.0 | 0.0 | 0.00 | 0.00 | 0.00 | 67 | 1010.9 |
| 20260902050041 | 10 | 230 | 0.0 | 0.0 | 0.00 | 0.00 | 0.00 | 65 | 1010.9 |
| 20260902044540 | 11 | 230 | 0.0 | 0.0 | 0.00 | 0.00 | 0.00 | 63 | 1011.0 |
| 20260902043040 | 11 | 230 | 0.0 | 0.0 | 0.00 | 0.00 | 0.00 | 62 | 1011.0 |
| 20260902041538 | 12 | 230 | 0.0 | 1.6 | 0.00 | 0.00 | 0.00 | 60 | 1011.0 |
| 20260902040038 | 12 | 229 | 0.0 | 0.0 | 0.00 | 0.00 | 0.00 | 58 | 1011.0 |
| 20260902034549 | 13 | 230 | 0.0 | 0.0 | 0.00 | 0.00 | 0.00 | 54 | 1011.0 |
| 20260902033053 | 15 | 230 | 0.0 | 1.6 | 0.00 | 0.00 | 0.00 | 49 | 1011.2 |
| 20260902031534 | 14 | 229 | 0.0 | 0.0 | 0.00 | 0.00 | 0.00 | 51 | 1011.1 |
| 20260902030033 | 13 | 230 | 0.0 | 1.6 | 0.00 | 0.00 | 0.00 | 52 | 1011.1 |
| 20260902024540 | 15 | 173 | 0.0 | 0.0 | 0.00 | 0.00 | 0.00 | 49 | 1010.9 |
| 20260902023033 | 17 | 173 | 0.0 | 0.0 | 0.00 | 0.00 | 0.00 | 45 | 1011.0 |
| 20260902021510 | 20 | 173 | 0.0 | 0.0 | 0.00 | 0.00 | 0.00 | 40 | 1010.9 |
| 20260902020000 | 21 | 173 | 0.0 | 0.0 | 0.00 | 0.00 | 0.00 | 33 | 1010.9 |
| 20260902014559 | 23 | 173 | 0.0 | 1.6 | 0.00 | 0.00 | 0.00 | 32 | 1010.9 |
| 20260902013104 | 25 | 163 | 0.0 | 3.2 | 0.00 | 0.00 | 0.00 | 29 | 1011.0 |
| 20260902011559 | 26 | 161 | 3.2 | 9.7 | 0.00 | 0.00 | 0.00 | 27 | 1010.9 |
| 20260902010059 | 26 | 151 | 1.6 | 9.7 | 0.00 | 0.00 | 0.00 | 27 | 1010.9 |
| 20260902004553 | 26 | 117 | 6.4 | 14.5 | 0.00 | 0.00 | 0.00 | 26 | 1011.0 |
| 20260902003052 | 27 | 129 | 8.0 | 12.9 | 0.00 | 0.00 | 0.00 | 25 | 1011.0 |
| 20260902001551 | 27 | 111 | 6.4 | 19.3 | 0.00 | 0.00 | 0.00 | 25 | 1011.0 |
| 20260902000049 | 28 | 108 | 6.4 | 12.9 | 0.00 | 0.00 | 0.00 | 25 | 1011.1 |
| 20260901234518 | 28 | 180 | 4.8 | 11.3 | 0.00 | 0.00 | 0.00 | 26 | 1011.2 |
| 20260901233027 | 28 | 157 | 4.8 | 12.9 | 0.00 | 0.00 | 0.00 | 26 | 1011.3 |
| 20260901231545 | 28 | 232 | 8.0 | 16.1 | 0.00 | 0.00 | 0.00 | 24 | 1011.4 |
| 20260901230044 | 28 | 243 | 6.4 | 14.5 | 0.00 | 0.00 | 0.00 | 25 | 1011.6 |
| 20260901224544 | 28 | 167 | 4.8 | 17.7 | 0.00 | 0.00 | 0.00 | 25 | 1011.8 |
| 20260901223036 | 28 | 207 | 6.4 | 16.1 | 0.00 | 0.00 | 0.00 | 24 | 1012.0 |
| 20260901221534 | 28 | 251 | 4.8 | 12.9 | 0.00 | 0.00 | 0.00 | 24 | 1012.0 |
| 20260901220032 | 28 | 141 | 8.0 | 14.5 | 0.00 | 0.00 | 0.00 | 25 | 1012.3 |
| 20260901214529 | 28 | 134 | 8.0 | 16.1 | 0.00 | 0.00 | 0.00 | 25 | 1012.4 |
| 20260901213028 | 27 | 137 | 6.4 | 14.5 | 0.00 | 0.00 | 0.00 | 26 | 1012.5 |
| 20260901211527 | 27 | 155 | 4.8 | 16.1 | 0.00 | 0.00 | 0.00 | 26 | 1012.8 |
| 20260901210021 | 27 | 206 | 9.7 | 14.5 | 0.00 | 0.00 | 0.00 | 26 | 1013.0 |
| 20260901204518 | 27 | 182 | 8.0 | 14.5 | 0.00 | 0.00 | 0.00 | 27 | 1013.1 |
| 20260901203015 | 27 | 159 | 8.0 | 19.3 | 0.00 | 0.00 | 0.00 | 26 | 1013.2 |
| 20260901201512 | 27 | 195 | 8.0 | 17.7 | 0.00 | 0.00 | 0.00 | 27 | 1013.4 |
| 20260901200012 | 26 | 180 | 6.4 | 16.1 | 0.00 | 0.00 | 0.00 | 28 | 1013.6 |
| 20260901194512 | 26 | 154 | 9.7 | 17.7 | 0.00 | 0.00 | 0.00 | 28 | 1013.7 |
| 20260901193003 | 26 | 161 | 6.4 | 22.5 | 0.00 | 0.00 | 0.00 | 29 | 1013.9 |
| 20260901191606 | 26 | 134 | 6.4 | 16.1 | 0.00 | 0.00 | 0.00 | 30 | 1014.0 |
| 20260901190112 | 25 | 186 | 8.0 | 17.7 | 0.00 | 0.00 | 0.00 | 30 | 1014.2 |
| 20260901184554 | 25 | 161 | 11.3 | 24.1 | 0.00 | 0.00 | 0.00 | 30 | 1014.4 |
| 20260901183051 | 25 | 146 | 9.7 | 17.7 | 0.00 | 0.00 | 0.00 | 31 | 1014.6 |
| 20260901181550 | 24 | 200 | 8.0 | 20.9 | 0.00 | 0.00 | 0.00 | 34 | 1014.7 |
| 20260901180042 | 23 | 173 | 9.7 | 20.9 | 0.00 | 0.00 | 0.00 | 34 | 1014.7 |
| 20260901174540 | 23 | 201 | 8.0 | 19.3 | 0.00 | 0.00 | 0.00 | 36 | 1015.0 |
| 20260901173036 | 22 | 129 | 6.4 | 16.1 | 0.00 | 0.00 | 0.00 | 37 | 1015.1 |
| 20260901171538 | 22 | 155 | 8.0 | 17.7 | 0.00 | 0.00 | 0.00 | 38 | 1015.3 |
| 20260901170027 | 21 | 124 | 9.7 | 19.3 | 0.00 | 0.00 | 0.00 | 39 | 1015.3 |
| 20260901164625 | 20 | 144 | 8.0 | 14.5 | 0.00 | 0.00 | 0.00 | 41 | 1015.5 |
| 20260901163054 | 20 | 127 | 6.4 | 17.7 | 0.00 | 0.00 | 0.00 | 41 | 1015.5 |
| 20260901161550 | 20 | 141 | 4.8 | 16.1 | 0.00 | 0.00 | 0.00 | 43 | 1015.6 |
| 20260901160046 | 19 | 154 | 11.3 | 20.9 | 0.00 | 0.00 | 0.00 | 44 | 1015.7 |
| 20260901154543 | 18 | 161 | 6.4 | 14.5 | 0.00 | 0.00 | 0.00 | 45 | 1015.6 |
| 20260901153040 | 18 | 179 | 3.2 | 12.9 | 0.00 | 0.00 | 0.00 | 47 | 1015.9 |
| 20260901151542 | 18 | 141 | 3.2 | 9.7 | 0.00 | 0.00 | 0.00 | 49 | 1016.1 |
| 20260901150035 | 17 | 184 | 3.2 | 8.0 | 0.00 | 0.00 | 0.00 | 50 | 1016.2 |
| 20260901144530 | 16 | 70 | 1.6 | 6.4 | 0.00 | 0.00 | 0.00 | 54 | 1016.0 |
| 20260901143028 | 15 | 49 | 0.0 | 3.2 | 0.00 | 0.00 | 0.00 | 63 | 1016.1 |
| 20260901141521 | 12 | 35 | 0.0 | 4.8 | 0.00 | 0.00 | 0.00 | 71 | 1016.0 |
| 20260901140054 | 12 | 39 | 1.6 | 4.8 | 0.00 | 0.00 | 0.00 | 73 | 1015.8 |
| 20260901134543 | 10 | 343 | 0.0 | 0.0 | 0.00 | 0.00 | 0.00 | 78 | 1015.6 |
| 20260901133036 | 8 | 285 | 0.0 | 0.0 | 0.00 | 0.00 | 0.00 | 79 | 1015.6 |
| 20260901131536 | 7 | 285 | 0.0 | 0.0 | 0.00 | 0.00 | 0.00 | 79 | 1015.7 |
| 20260901130033 | 7 | 285 | 0.0 | 0.0 | 0.00 | 0.00 | 0.00 | 80 | 1015.7 |
| 20260901124534 | 7 | 279 | 0.0 | 0.0 | 0.00 | 0.00 | 0.00 | 81 | 1015.8 |
| 20260901123004 | 6 | 287 | 0.0 | 0.0 | 0.00 | 0.00 | 0.00 | 81 | 1015.8 |
| 20260901121501 | 6 | 287 | 0.0 | 0.0 | 0.00 | 0.00 | 0.00 | 81 | 1015.8 |
| 20260901120058 | 6 | 287 | 0.0 | 0.0 | 0.00 | 0.00 | 0.00 | 81 | 1015.7 |
| 20260901114555 | 6 | 287 | 0.0 | 0.0 | 0.00 | 0.00 | 0.00 | 80 | 1015.8 |
| 20260901113101 | 7 | 287 | 0.0 | 0.0 | 0.00 | 0.00 | 0.00 | 80 | 1016.0 |
| 20260901111552 | 7 | 283 | 0.0 | 0.0 | 0.00 | 0.00 | 0.00 | 79 | 1016.0 |
| 20260901110049 | 7 | 286 | 0.0 | 0.0 | 0.00 | 0.00 | 0.00 | 80 | 1015.9 |
| 20260901104557 | 7 | 286 | 0.0 | 0.0 | 0.00 | 0.00 | 0.00 | 80 | 1016.0 |
| 20260901103046 | 6 | 286 | 0.0 | 0.0 | 0.00 | 0.00 | 0.00 | 81 | 1016.2 |